Temperature
21 21 21 21 20 20 20 19 19 19 19 18 18 18 18 18 18 17 17 17 17 17 17 17 17 17 16 16 16 16 16 16 16 15 15 15 15 15 15 14 14 14 14
22 21 21 21 20 20 20 19 19 19 19 18 18 18 18 18 17 17 17 17 17 17 17 17 17 16 16 16 16 16 16 15 15 15 15 14 14 14 14 14 14 14 14
22 21 21 21 20 20 20 19 19 19 19 18 18 18 18 18 17 17 17 17 17 17 17 16 16 16 16 16 16 15 15 15 15 15 15 14 14 14 14 14 13 13 13
22 21 21 21 20 20 20 19 19 19 19 18 18 18 18 18 17 17 17 17 17 17 16 16 16 16 16 16 15 15 15 15 15 14 14 14 14 13 13 13 13 13 13
22 21 21 21 20 20 20 19 19 19 19 18 18 18 18 17 17 17 17 17 17 16 16 16 16 16 16 15 15 15 15 14 14 14 14 13 13 13 13 13 13 12 12
22 21 21 21 20 20 20 19 19 19 18 18 18 18 18 17 17 17 17 17 16 16 16 16 15 15 15 15 15 15 14 14 14 14 14 13 13 13 13 13 13 12 12
22 21 21 20 20 20 19 19 19 19 18 18 18 18 17 17 17 17 17 16 16 16 16 15 15 15 15 15 15 14 14 14 14 14 14 13 13 13 13 12 12 12 12
22 21 21 20 20 20 19 19 19 18 18 18 18 17 17 17 17 16 16 16 16 16 15 15 15 15 15 15 14 14 14 14 14 13 13 13 13 13 12 12 12 12 11
21 21 21 20 20 19 19 19 19 18 18 18 17 17 17 17 17 16 16 16 16 15 15 15 15 14 14 14 14 14 14 13 13 13 12 12 12 12 12 12 11 11 11
21 20 20 20 19 19 19 18 18 18 18 17 17 17 17 16 16 16 16 15 15 15 15 14 14 14 14 14 13 13 13 13 13 12 12 12 12 12 11 11 11 11 11
20 20 20 19 19 19 18 18 18 17 17 17 16 16 16 16 16 15 15 15 15 15 14 14 14 14 13 13 13 13 13 12 12 12 12 12 11 11 11 11 10 10 10
20 19 19 19 18 18 18 18 17 17 17 16 16 16 16 15 15 15 15 15 14 14 14 14 13 13 13 13 13 12 12 12 12 11 11 11 11 11 11 10 10 10 10
19 19 18 18 18 18 17 17 17 16 16 16 16 16 15 15 15 14 14 14 14 14 13 13 13 13 12 12 12 12 12 12 11 11 11 11 11 11 10 10 10 10 9
18 18 18 18 17 17 17 17 16 16 16 16 16 16 15 15 14 14 14 14 14 13 13 13 12 12 12 12 12 11 11 11 11 11 11 10 10 10 10 10 10 10 9
17 17 17 17 17 16 16 16 16 16 15 15 15 15 15 14 14 14 14 13 13 13 12 12 12 12 12 11 11 11 11 11 10 10 10 10 10 10 10 10 9 9 9
17 17 16 16 16 16 16 15 15 15 15 15 15 14 14 14 14 13 13 13 13 12 12 12 12 11 11 11 11 11 10 10 10 10 10 10 9 9 9 9 9 9 9
16 16 16 16 15 15 15 15 15 15 14 14 14 14 14 14 13 13 13 12 12 12 11 11 11 11 11 10 10 10 10 10 10 9 9 9 9 9 9 9 8 8 8
15 15 15 15 15 15 15 15 15 14 14 14 14 13 13 13 13 12 12 12 12 11 11 11 11 11 10 10 10 10 9 9 9 9 9 9 9 9 8 8 8 8 8
15 15 15 14 14 14 14 14 14 14 13 13 13 13 13 12 12 12 12 11 11 11 11 10 10 10 10 10 10 9 9 9 9 9 8 8 8 8 8 8 8 8 7
14 14 14 14 14 14 13 13 13 13 13 12 12 12 12 12 12 11 11 11 11 11 10 10 10 10 10 9 9 9 9 9 8 8 8 8 8 8 8 7 7 7 7
14 14 13 13 13 13 13 13 12 12 12 12 11 11 11 11 11 11 10 10 10 10 10 10 9 9 9 9 9 8 8 8 8 8 8 8 7 7 7 7 7 7 7
13 13 13 12 12 12 12 12 11 11 11 11 11 10 10 10 10 10 10 10 10 9 9 9 9 9 8 8 8 8 8 7 7 7 7 7 7 7 7 7 7 7 6
12 12 12 12 12 11 11 11 11 11 10 10 10 10 10 10 10 9 9 9 9 9 9 8 8 8 8 7 7 7 7 7 7 7 7 7 6 6 6 6 6 6 6
12 12 11 11 11 11 11 10 10 10 10 10 10 9 9 9 9 9 9 9 9 8 8 8 8 7 7 7 7 7 7 6 6 6 6 6 6 6 6 6 6 5 5
11 11 11 11 11 10 10 10 10 10 9 9 9 9 9 9 8 8 8 8 8 8 7 7 7 7 7 6 6 6 6 6 6 6 6 5 5 5 5 5 5 5 5
11 10 10 10 10 10 10 10 9 9 9 9 9 8 8 8 8 8 7 7 7 7 7 7 6 6 6 6 6 6 6 5 5 5 5 5 5 5 4 4 4 4 4
Wind_Speed
10 8 8 7 7 6 6 6 5 4 4 4 4 4 3 3 2 2 2 2 2 1 1 1 1 1 1 1 2 2 2 3 3 1 1 1 1 2 4 5 5 5 5
9 8 8 7 7 6 6 6 6 5 5 5 4 4 3 3 3 3 3 2 2 1 1 1 1 1 1 1 1 2 2 2 3 3 1 1 1 3 3 3 4 4 5
9 9 8 7 7 7 6 5 5 5 5 5 4 4 3 3 4 4 3 3 2 2 2 2 2 1 1 1 1 1 1 2 2 3 2 1 1 2 3 3 3 3 4
10 10 9 9 8 7 6 6 6 6 5 5 4 3 3 3 3 3 3 3 2 2 2 2 2 2 2 2 2 2 2 3 3 3 3 1 1 2 2 2 2 1 1
10 10 10 9 8 7 6 6 5 5 5 5 4 3 3 3 3 3 3 3 3 2 1 1 2 2 3 3 3 3 4 3 3 3 3 2 2 2 3 2 2 2 1
11 10 9 8 8 7 7 6 5 5 5 5 4 4 3 2 3 4 4 3 3 3 2 1 1 2 2 4 4 4 5 5 5 4 3 4 3 3 3 3 3 3 1
10 9 9 9 8 8 7 6 6 5 4 4 4 4 4 3 4 4 5 4 3 3 3 2 1 1 2 3 3 4 3 3 5 6 5 5 5 5 5 4 4 3 2
9 9 9 9 9 8 7 7 6 4 5 4 4 4 4 3 3 3 4 3 3 2 2 3 3 2 2 3 3 3 2 1 2 3 4 4 4 5 6 5 5 3 2
7 8 9 9 9 9 8 7 5 5 4 4 4 5 4 2 3 3 4 3 2 2 1 2 3 3 3 5 4 3 2 0 1 2 3 3 5 7 8 5 4 4 1
6 6 7 8 9 9 8 7 5 5 5 5 5 4 5 4 3 4 5 3 3 2 1 1 1 3 3 5 4 4 3 2 1 2 2 2 3 6 8 6 6 5 2
5 5 5 6 7 8 6 5 5 5 5 5 5 4 4 4 4 5 6 4 4 3 2 1 1 3 4 4 4 3 4 3 2 2 1 1 1 2 3 4 4 4 4
4 4 5 5 6 6 7 6 6 6 6 5 4 3 2 2 3 5 7 6 6 4 3 2 2 3 3 3 3 4 5 4 2 2 1 1 2 2 3 4 5 5 5
3 3 3 4 5 6 7 7 6 6 5 5 5 4 3 2 2 4 6 7 7 4 3 5 4 4 3 2 3 4 4 3 2 2 2 3 3 3 2 1 2 2 2
3 2 3 3 3 4 4 5 5 6 6 5 6 5 4 3 3 3 3 3 4 4 3 3 3 2 2 1 1 1 2 3 3 3 3 2 1 1 2 2 2 2 1
3 2 2 3 4 4 4 3 4 4 6 6 5 5 6 5 6 8 6 5 5 5 4 2 1 1 1 0 1 1 1 1 2 2 2 2 1 2 2 2 2 2 3
2 2 2 2 3 4 5 2 2 1 2 4 6 5 4 5 7 8 8 7 7 8 5 2 2 2 3 2 2 2 1 2 3 2 2 3 3 3 3 2 2 3 4
3 2 1 2 3 4 5 5 3 1 3 2 1 3 4 5 6 7 7 6 6 7 3 3 3 3 3 2 2 2 2 2 2 2 3 3 3 3 2 3 3 3 4
2 2 2 2 2 3 4 5 5 4 2 1 2 2 4 5 5 6 7 6 3 3 3 3 3 3 2 2 2 2 2 1 1 1 2 2 3 3 3 3 3 4 4
1 1 2 2 2 3 3 4 4 4 4 3 2 3 4 5 5 5 6 3 3 3 3 2 2 2 2 2 2 2 2 2 2 2 2 3 3 3 3 4 4 5 5
1 1 2 2 2 2 3 4 4 4 4 3 3 2 2 3 3 2 2 2 2 2 2 2 2 2 1 1 1 1 1 2 2 2 2 3 3 3 4 5 4 4 5
1 1 3 3 2 2 3 3 3 3 3 3 2 2 4 4 4 3 2 2 2 2 2 2 1 1 1 1 1 1 1 1 1 2 2 2 2 2 3 3 4 4 4
2 2 3 3 3 3 3 3 4 3 3 3 2 2 4 3 3 3 2 2 1 1 1 1 1 0 0 0 1 1 1 1 1 1 2 2 2 2 2 2 2 2 3
3 3 3 3 3 4 4 3 3 3 3 3 3 3 3 3 2 2 2 1 1 1 2 2 2 1 2 2 2 1 1 1 2 2 2 2 2 2 2 2 3 2 3
3 3 3 3 3 3 3 3 3 3 4 3 3 3 3 2 2 2 2 2 2 2 3 3 3 3 3 3 3 2 2 1 2 2 2 2 2 3 3 3 3 3 4
3 4 4 3 3 3 3 4 4 4 4 4 4 3 3 3 3 3 3 2 3 3 3 4 4 3 3 3 3 3 3 4 4 3 2 2 2 3 3 3 3 3 4
4 4 4 3 3 4 4 5 5 5 5 4 4 4 4 4 4 4 4 3 3 3 3 4 5 5 4 5 5 6 5 5 5 4 3 2 2 3 3 3 4 4 4
Wind_Direction
183 184 183 186 186 183 187 188 191 195 197 193 188 187 189 189 183 167 175 158 172 215 222 186 235 225 197 193 170 168 173 163 179 212 189 154 114 117 99 97 94 94 94
184 183 186 185 183 185 191 195 189 188 190 190 184 184 190 174 160 155 166 154 163 195 227 186 238 219 188 165 162 172 171 162 160 177 168 143 115 131 124 111 99 92 96
180 182 184 183 184 190 192 190 185 184 186 184 177 178 181 171 159 160 163 164 180 193 191 185 199 159 189 197 159 155 151 144 135 154 165 138 110 128 113 99 99 88 98
179 181 184 187 187 187 184 182 181 179 178 180 173 167 166 156 151 157 159 165 171 174 173 170 174 174 190 184 156 143 136 125 125 137 143 132 116 123 126 135 119 82 92
179 185 190 187 182 178 178 178 173 169 171 168 159 156 153 149 159 163 173 175 174 168 153 160 169 156 157 158 158 152 143 141 141 144 151 144 150 158 174 168 151 121 66
181 189 185 177 176 176 174 169 165 164 163 157 162 161 161 173 166 160 162 171 177 164 149 133 127 105 121 125 128 136 148 157 167 166 173 175 188 184 167 162 150 137 183
182 184 181 177 176 175 173 165 168 168 160 158 164 161 168 180 172 164 164 168 168 166 161 163 154 126 125 124 120 115 118 144 163 169 178 189 186 187 172 168 171 168 183
177 179 180 178 177 171 166 169 173 168 164 165 170 169 165 178 174 163 154 153 147 149 156 168 164 160 152 143 130 113 105 104 160 168 182 192 187 182 179 174 168 143 101
179 183 182 178 173 170 173 177 175 164 162 158 159 156 151 160 169 165 150 138 132 120 110 131 157 170 173 149 142 140 130 94 88 123 152 167 167 164 161 141 141 140 162
186 187 181 176 171 170 174 173 167 161 162 158 155 157 157 164 170 164 154 134 137 135 91 88 150 172 168 153 152 156 164 194 132 93 76 94 142 157 163 167 167 163 157
175 171 166 168 169 165 163 164 161 159 156 158 157 157 162 170 175 171 166 158 164 164 170 189 217 177 157 154 156 168 182 167 144 130 111 100 115 145 175 181 176 171 174
146 154 159 162 167 163 160 164 161 160 161 166 163 168 186 189 186 183 175 176 171 168 188 197 200 182 164 153 158 169 157 140 127 123 133 183 203 213 215 209 201 203 202
127 150 158 162 164 163 164 164 161 163 170 179 178 188 198 193 206 198 182 182 181 172 179 176 175 168 158 162 177 166 154 146 152 173 204 227 232 223 204 206 218 212 224
142 152 148 146 149 149 153 161 167 174 179 184 192 195 191 189 201 201 188 172 162 159 150 156 156 147 122 132 154 171 171 179 183 202 218 232 228 194 193 190 194 195 211
123 126 143 159 159 157 154 163 178 192 196 189 196 195 190 200 211 195 180 178 178 171 142 117 112 123 143 171 229 244 224 183 200 211 208 215 224 229 225 201 191 189 204
122 139 158 175 175 167 157 135 64 166 176 187 192 190 196 192 181 176 177 174 166 153 139 155 179 188 195 203 208 226 231 225 221 210 209 214 217 223 233 221 203 206 222
136 150 137 154 171 175 170 165 163 61 53 44 189 185 181 169 162 165 164 158 149 144 143 175 193 206 212 208 208 216 232 238 224 204 208 217 220 224 224 224 219 221 232
110 126 147 157 181 184 180 177 171 169 161 48 36 96 140 149 151 155 148 127 125 156 182 189 196 203 211 210 207 217 233 243 224 219 223 227 222 221 226 233 233 229 234
133 161 158 159 177 179 169 157 149 147 141 133 101 71 94 106 105 121 134 140 166 184 194 197 199 206 209 205 208 210 214 230 236 228 239 242 235 228 235 237 237 238 234
93 155 149 153 140 146 144 135 133 134 135 137 136 141 128 110 108 115 137 162 166 170 172 183 193 185 177 187 196 208 229 245 251 243 252 251 244 234 240 241 237 237 237
115 132 126 126 126 123 123 131 134 134 138 136 138 148 149 141 141 138 143 159 169 173 175 170 168 166 177 177 181 196 224 258 273 268 267 267 259 253 252 248 248 248 249
146 147 144 139 128 119 118 122 124 127 130 127 112 100 119 119 124 124 134 147 160 169 160 145 143 129 153 175 172 160 187 260 284 284 278 275 275 273 267 263 260 259 259
132 131 124 119 120 117 112 114 119 121 124 128 130 125 125 127 130 131 134 138 125 123 101 100 109 88 62 65 73 99 144 256 276 276 275 284 287 277 269 265 264 266 261
124 125 123 121 117 116 119 118 120 123 124 122 122 121 125 132 129 121 118 111 105 103 102 102 105 100 79 65 57 57 41 339 304 276 256 255 266 271 267 270 269 266 266
106 105 105 107 111 116 116 113 112 114 114 114 112 111 107 104 99 94 85 83 90 92 86 89 89 85 78 68 45 26 9 1 351 330 296 260 263 269 271 273 274 276 268
100 99 99 98 97 103 107 108 107 106 105 103 101 100 98 94 90 86 80 78 81 82 78 81 82 77 62 48 29 20 14 7 1 352 344 314 290 288 292 282 281 280 281
Height
1527 1529 1530 1531 1533 1534 1535 1535 1536 1537 1537 1537 1537 1537 1537 1537 1537 1537 1537 1536 1536 1536 1536 1536 1535 1535 1535 1535 1536 1536 1536 1536 1536 1536 1536 1536 1537 1537 1537 1536 1536 1536 1536
1525 1527 1528 1529 1531 1532 1533 1534 1534 1535 1535 1535 1535 1535 1535 1535 1535 1535 1534 1534 1534 1534 1533 1533 1533 1532 1532 1532 1532 1532 1533 1533 1533 1533 1534 1534 1534 1535 1535 1535 1534 1534 1534
1523 1525 1526 1527 1528 1530 1531 1531 1532 1532 1533 1533 1533 1533 1532 1532 1532 1532 1532 1532 1531 1531 1531 1531 1530 1530 1529 1529 1529 1529 1530 1530 1531 1531 1531 1532 1532 1532 1533 1533 1533 1533 1532
1521 1522 1523 1524 1526 1527 1528 1529 1529 1530 1530 1530 1531 1530 1530 1530 1530 1530 1530 1529 1529 1529 1529 1528 1528 1527 1527 1527 1526 1527 1527 1528 1528 1529 1529 1529 1530 1530 1531 1530 1530 1531 1531
1518 1519 1520 1522 1523 1525 1526 1527 1527 1527 1527 1528 1528 1528 1528 1528 1527 1527 1527 1527 1527 1526 1526 1526 1526 1525 1525 1525 1524 1524 1525 1525 1526 1526 1526 1527 1527 1528 1528 1528 1529 1529 1529
1516 1517 1518 1519 1521 1522 1523 1524 1525 1525 1525 1525 1526 1526 1526 1526 1525 1525 1525 1525 1524 1524 1524 1524 1524 1524 1523 1523 1523 1523 1523 1523 1523 1524 1524 1524 1525 1525 1526 1526 1526 1526 1526
1512 1514 1515 1516 1518 1519 1521 1522 1523 1523 1523 1523 1524 1524 1524 1524 1524 1524 1523 1523 1523 1522 1522 1523 1523 1523 1523 1522 1522 1522 1521 1521 1522 1522 1522 1522 1522 1523 1523 1524 1524 1524 1524
1508 1510 1512 1513 1515 1516 1517 1518 1519 1520 1520 1521 1521 1522 1522 1522 1522 1522 1521 1521 1521 1521 1521 1521 1522 1522 1521 1521 1521 1520 1520 1520 1520 1520 1520 1520 1521 1521 1521 1522 1522 1523 1523
1505 1506 1508 1509 1510 1512 1513 1515 1515 1516 1517 1518 1518 1519 1519 1520 1520 1520 1520 1519 1520 1519 1519 1519 1520 1520 1520 1519 1519 1519 1518 1518 1518 1518 1518 1518 1519 1519 1520 1520 1520 1520 1520
1502 1503 1505 1506 1506 1507 1509 1511 1512 1513 1514 1515 1515 1516 1517 1517 1518 1517 1518 1518 1517 1517 1518 1518 1518 1518 1518 1517 1517 1517 1516 1516 1516 1516 1516 1517 1517 1517 1517 1518 1518 1518 1518
1500 1501 1502 1503 1504 1505 1507 1508 1508 1510 1511 1512 1512 1513 1514 1514 1515 1515 1515 1515 1515 1515 1515 1515 1516 1516 1516 1515 1515 1515 1515 1515 1515 1515 1514 1514 1515 1515 1515 1516 1516 1516 1516
1498 1499 1500 1501 1502 1503 1504 1505 1506 1507 1508 1509 1509 1510 1511 1512 1512 1512 1512 1513 1513 1513 1513 1514 1514 1514 1513 1513 1513 1513 1513 1513 1513 1513 1513 1512 1513 1513 1513 1513 1514 1514 1514
1495 1495 1497 1498 1499 1500 1501 1502 1503 1504 1505 1505 1506 1507 1507 1508 1509 1509 1510 1510 1510 1510 1511 1511 1511 1511 1511 1511 1511 1511 1511 1511 1511 1511 1510 1510 1510 1511 1511 1511 1511 1511 1511
1492 1493 1494 1495 1496 1497 1498 1499 1500 1500 1501 1501 1502 1502 1503 1505 1506 1506 1506 1507 1507 1507 1508 1508 1509 1509 1509 1509 1509 1508 1508 1508 1508 1508 1508 1508 1508 1508 1508 1508 1508 1508 1508
1490 1490 1491 1492 1493 1494 1495 1495 1496 1497 1498 1498 1498 1499 1500 1500 1502 1503 1503 1504 1504 1505 1505 1506 1506 1506 1506 1506 1506 1506 1506 1505 1505 1505 1505 1505 1505 1505 1505 1505 1505 1505 1505
1487 1488 1488 1489 1489 1490 1491 1492 1494 1494 1495 1495 1495 1496 1497 1498 1499 1499 1501 1501 1502 1503 1503 1503 1503 1503 1503 1503 1503 1503 1503 1503 1502 1502 1502 1502 1502 1501 1501 1501 1501 1501 1501
1485 1485 1486 1486 1486 1487 1488 1488 1489 1490 1491 1492 1492 1493 1494 1495 1496 1496 1497 1498 1499 1500 1500 1500 1500 1500 1500 1500 1500 1500 1500 1500 1499 1499 1499 1499 1499 1498 1498 1498 1498 1498 1497
1483 1484 1484 1484 1483 1484 1484 1485 1486 1486 1487 1487 1489 1490 1491 1492 1493 1493 1494 1495 1495 1496 1496 1497 1497 1497 1497 1497 1497 1497 1497 1497 1496 1496 1496 1496 1495 1495 1495 1494 1494 1494 1494
1481 1481 1481 1480 1480 1480 1481 1481 1482 1483 1483 1484 1485 1487 1488 1489 1490 1491 1491 1492 1492 1493 1493 1494 1494 1494 1494 1494 1494 1494 1493 1493 1493 1493 1492 1492 1492 1491 1491 1490 1490 1490 1490
1478 1478 1478 1477 1477 1476 1477 1477 1479 1480 1481 1482 1483 1484 1486 1487 1487 1488 1488 1489 1489 1490 1490 1491 1491 1491 1491 1491 1491 1490 1490 1490 1490 1489 1488 1488 1488 1487 1486 1486 1486 1486 1485
1476 1476 1476 1476 1475 1475 1475 1475 1476 1478 1479 1480 1481 1483 1484 1484 1485 1486 1486 1486 1487 1487 1488 1488 1488 1487 1488 1488 1487 1487 1487 1486 1486 1485 1485 1484 1484 1483 1483 1482 1482 1481 1481
1474 1474 1474 1474 1473 1473 1474 1474 1475 1477 1478 1478 1479 1481 1482 1483 1483 1484 1484 1485 1485 1485 1485 1485 1484 1484 1484 1484 1484 1484 1483 1483 1482 1482 1481 1480 1480 1479 1479 1478 1477 1477 1476
1472 1472 1472 1472 1472 1472 1473 1474 1475 1475 1476 1477 1478 1479 1480 1481 1482 1482 1482 1482 1482 1482 1482 1482 1482 1482 1481 1481 1481 1480 1480 1479 1479 1478 1477 1476 1476 1475 1475 1474 1473 1472 1471
1470 1470 1470 1470 1471 1471 1472 1473 1474 1475 1476 1477 1477 1478 1479 1479 1480 1480 1480 1480 1480 1480 1480 1480 1479 1479 1478 1478 1478 1477 1476 1476 1475 1474 1473 1473 1472 1471 1470 1469 1468 1468 1467
1468 1469 1469 1470 1470 1471 1472 1472 1473 1474 1475 1476 1476 1477 1477 1478 1478 1478 1478 1478 1478 1478 1478 1477 1477 1476 1476 1475 1475 1474 1473 1472 1471 1470 1469 1469 1468 1467 1466 1465 1464 1464 1463
1468 1469 1469 1470 1470 1471 1471 1471 1472 1473 1474 1475 1475 1476 1476 1476 1476 1476 1476 1476 1476 1476 1475 1475 1474 1474 1473 1472 1471 1470 1470 1469 1468 1467 1466 1464 1463 1462 1461 1461 1460 1459 1459